ALSAT 1 1 27559U 02054A 12039.63802001 .00000336 00000-0 63906-4 0 3707 2 27559 97.8083 255.0436 0023986 147.8695 212.3993 14.69819743491654 NIGERIASAT 1 1 27941U 03042C 12039.71350951 .00000629 00000-0 91517-4 0 4605 2 27941 97.8359 252.1366 0054023 106.8525 253.8617 14.78344897447228 UK-DMC 1 27942U 03042D 12039.81239633 .00000509 00000-0 78855-4 0 4551 2 27942 97.8254 256.3028 0064766 303.2673 56.2343 14.76120036447514 BILSAT 1 1 27943U 03042E 12039.70847482 .00000166 00000-0 40781-4 0 2887 2 27943 97.8179 245.2314 0010630 325.8567 34.1950 14.63163858446848 BEIJING 1 1 28890U 05043A 12039.66944381 .00000162 00000-0 42673-4 0 1756 2 28890 97.9209 270.4417 0015296 189.5973 170.4958 14.60286626334943 HJ-1A 1 33320U 08041A 12039.69376247 .00000419 00000-0 68011-4 0 7827 2 33320 97.8800 111.8221 0023933 208.4502 151.5414 14.75965655184403 HJ-1B 1 33321U 08041B 12039.79190597 .00000691 00000-0 10647-3 0 8397 2 33321 97.8827 112.1366 0041676 221.8379 137.9636 14.76009135184409 YAOGAN 4 1 33446U 08061A 12039.72973990 -.00000070 00000-0 -31802-5 0 5417 2 33446 97.8066 107.8313 0017975 154.3307 205.8781 14.74460292171675 YAOGAN 5 1 33456U 08064A 12039.70342712 .00007689 00000-0 23856-3 0 5409 2 33456 97.2724 112.9355 0009824 195.8785 310.6670 15.33625447175608 DEIMOS-1 1 35681U 09041A 12039.74341327 .00000234 00000-0 47464-4 0 8091 2 35681 98.0483 300.6791 0001738 103.6873 256.4546 14.69662058135727 UK-DMC 2 1 35683U 09041C 12039.71684037 .00000326 00000-0 63006-4 0 8304 2 35683 98.0508 299.6961 0001068 108.7551 251.3780 14.69650183135649